Location: Montague
(41.3030°N, 74.7940°W)
Time: 12:26:20
(UTC-04:00)

Daily predictions for brighter satellites

Satellite Brightness Start Highest point End
(mag) Time Altitude Azimuth Time Altitude Azimuth Time Altitude Azimuth
BREEZE-M DEB (TANK) 4.2 20:40:48 10° WNW 20:44:33 49° SSW 20:57:01 10° SE
ATLAS 3B R/B 4.5 20:45:26 10° SE 20:48:24 13° ESE 20:51:21 10° E
APEX 4.2 20:47:14 10° N 20:51:04 43° ENE 20:55:57 10° SE
Resurs 01 Rocket 4.3 20:48:46 10° SW 20:51:52 18° W 20:55:00 10° NW
Cosmos 2228 3.7 20:48:55 10° N 20:53:05 39° ENE 20:57:13 10° SSE
Cosmos 2098 Rocket 3.9 20:51:31 10° NNW 20:54:44 42° W 20:58:38 10° SSW
Cosmos 1743 2.8 20:50:53 10° N 20:54:45 84° W 20:58:34 10° S
Lacrosse 5 rocket 2.2 20:51:14 10° WSW 20:55:00 52° NW 20:58:57 10° NE
Cosmos 1025 Rocket 3.5 20:51:08 10° SSW 20:55:31 69° W 20:59:53 10° N
Meteor 1-23 Rocket 4.3 20:50:34 10° S 20:56:08 64° E 21:01:47 10° NNE
Cosmos 2251 Rocket 3.8 20:52:06 10° SSW 20:57:25 77° WNW 21:02:48 10° NNE
Cosmos 1892 Rocket 3.7 20:59:14 10° S 21:03:40 83° W 21:08:11 10° N
ERS-1 Rocket 3.0 20:58:57 10° SSE 21:03:58 82° ENE 21:09:00 10° NNW
Cosmos 1603 4.3 20:59:42 10° S 21:04:46 36° ESE 21:09:50 10° NE
USA 234 3.9 20:59:37 10° ESE 21:05:51 48° NNE 21:12:05 10° NW
Envisat 3.4 21:03:04 10° SE 21:07:53 46° ENE 21:12:45 10° N
Meteor 2-9 Rocket 4.3 21:03:52 10° N 21:09:33 71° E 21:15:20 10° SSE
Cosmos 1110 Rocket 4.4 21:04:33 10° NNW 21:09:48 65° WSW 21:14:59 10° S
SJ-11-01 4.3 21:05:25 10° SSE 21:10:04 84° ENE 21:14:47 10° NNW
USA 186 3.7 21:11:17 10° SSW 21:13:42 24° W 21:16:00 10° NW
Abrixas rocket 2.3 21:12:08 10° WNW 21:15:34 75° SSW 21:18:26 14° SE
Meteor 2-4 Rocket 3.9 21:10:00 10° S 21:15:51 86° W 21:21:50 10° N
Okean 2 3.5 21:13:57 10° S 21:18:08 81° W 21:22:20 10° N
Cosmos 2333 Rocket 4.5 21:13:29 10° WSW 21:18:22 29° NW 21:23:16 10° N
Cosmos 2297 4.3 21:14:11 10° NNW 21:19:45 56° WSW 21:25:20 10° S
BREEZE M DEB (TANK) 2.0 21:17:02 10° WNW 21:20:04 49° N 21:21:56 10° E
Tsikada Rocket 4.2 21:18:18 10° SSE 21:24:31 56° E 21:30:44 10° NNE
Timation 1 Rocket 4.4 21:18:47 10° NNW 21:24:49 74° ENE 21:30:11 13° SSE
Cosmos 1943 4.3 21:25:39 12° SSE 21:29:32 24° E 21:33:58 10° NE
YAOGAN 6 3.8 21:27:50 16° ESE 21:30:07 29° ENE 21:33:24 10° N
PSLV R/B 3.7 21:29:58 10° SW 21:33:21 43° SSE 21:36:28 12° E
ISS -2.3 21:30:41 10° SSW 21:33:26 26° SE 21:36:13 10° ENE
Cosmos 2285 Rocket 4.5 21:28:31 10° NNW 21:34:43 61° WSW 21:40:57 10° S
Cosmos 1943 Rocket 4.3 21:35:10 10° NNE 21:37:44 13° NE 21:40:18 10° ENE
Cosmos 1461 2.8 21:35:00 10° NNW 21:39:20 88° SW 21:42:09 20° SSE
CZ-2C R/B 3.4 21:38:07 10° SW 21:39:33 15° W 21:40:58 10° WNW
MetOp-A 4.2 21:35:19 15° SSE 21:39:47 63° ENE 21:45:05 10° N
SPOT 5 2.6 21:36:20 14° SSE 21:40:11 82° ENE 21:44:32 10° NNW
Cosmos 2058 Rocket 4.4 21:37:01 10° NNW 21:41:05 38° W 21:45:05 10° SSW
Cosmos 1602 Rocket 3.7 21:42:16 10° S 21:46:45 79° W 21:51:15 10° N
CZ-4 SHROUD 3.6 21:46:44 16° S 21:49:03 60° WSW 21:52:11 10° NNW
H-2A R/B 3.5 21:48:11 15° ESE 21:50:45 22° ENE 21:54:32 10° NNE
Cosmos 1825 Rocket 4.2 21:49:40 22° SE 21:51:55 37° E 21:56:00 10° NNE
GRACE-1 4.5 21:50:16 10° N 21:53:06 58° W 21:55:07 17° SSW
GRACE-2 4.5 21:50:43 10° N 21:53:33 58° W 21:55:32 17° SSW
Aureole 2 Rocket 4.3 21:50:35 10° SW 21:54:14 36° WNW 21:57:35 10° N
Cosmos 1812 Rocket 3.5 21:52:59 10° N 21:57:23 88° W 22:00:27 20° S
SPOT 1/Viking Rocket 3.6 21:55:43 21° SSE 21:59:07 67° ENE 22:04:15 10° N
Cosmos 1816 Rocket 4.5 21:55:02 10° S 22:01:23 83° E 22:07:45 10° N
Terra 3.2 22:00:40 19° ESE 22:02:42 25° ENE 22:06:32 10° NNE
Cosmos 1634 Rocket 4.1 21:59:08 10° N 22:05:13 58° E 22:08:55 24° SSE
USA 245 4.2 22:05:43 21° SSE 22:09:59 85° ENE 22:15:17 10° NNW
H-2A R/B 4.2 22:06:54 10° SW 22:10:13 22° W 22:13:35 10° NW
SeaSat 1 3.0 22:07:21 19° S 22:10:43 52° WSW 22:15:33 10° NW
Atlas Centaur 2 3.6 22:04:07 10° SW 22:11:08 36° S 22:15:35 22° ESE
Cosmos 2369 Rocket 2.5 22:08:03 10° NNW 22:13:38 55° ENE 22:16:29 28° SE
ARGOS 3.2 22:10:34 26° SSE 22:13:43 73° ENE 22:19:09 10° N
CZ-4C R/B 3.8 22:12:56 32° SE 22:14:31 51° ENE 22:18:31 10° N
DEBRIS 3.5 22:11:48 10° WNW 22:15:10 26° SW 22:15:34 24° SW
CZ-4B R/B 3.7 22:12:30 10° N 22:17:34 76° WNW 22:22:44 10° SSW
NOAA 11 4.1 22:22:44 29° SSE 22:25:36 84° ENE 22:31:03 10° NNW
COSMOS 2455 3.0 22:21:38 10° SW 22:27:38 74° WNW 22:33:40 10° NNE
Cosmos 2279 Rocket 4.3 22:23:43 10° N 22:29:49 53° ENE 22:32:31 32° SE
Cosmos 1953 3.7 22:30:52 10° NNE 22:34:08 24° ENE 22:34:19 23° E
Cosmos 1953 Rocket 3.4 22:35:34 38° S 22:37:12 86° E 22:41:39 10° N
Cosmos 2263 4.4 22:31:46 10° NNW 22:37:21 61° ENE 22:39:31 36° SE
Meteor 1-22 Rocket 4.2 22:31:55 10° N 22:37:31 82° E 22:40:02 35° SSE
ATLAS 3B R/B 2.9 22:30:17 10° SSW 22:37:55 69° ESE 22:45:25 10° NE
COSMOS 2406 4.5 22:39:06 23° E 22:39:06 23° E 22:43:14 10° NE
IGS 5A 3.7 22:43:55 48° ESE 22:44:33 53° ENE 22:48:37 10° N
USA 234 3.5 22:45:49 33° SSE 22:48:45 57° SW 22:55:13 10° NW
Cosmos 407 Rocket 3.4 22:49:25 32° SSW 22:51:55 86° ESE 22:57:10 10° NNE
SL-27 R/B 4.4 22:55:24 18° NE 22:55:24 18° NE 22:56:35 10° NE
Cosmos 1346 Rocket 3.3 22:56:00 39° SW 22:57:05 54° WNW 23:00:58 10° N
Cosmos-2242 3.1 22:53:36 10° N 22:57:57 58° E 22:58:21 55° ESE
SL-23 DEB 4.2 22:53:06 10° SW 23:01:53 15° ENE 23:02:33 10° ENE
SL-24 R/B 4.4 22:54:15 10° N 22:59:11 88° E 23:00:48 45° S
Lacrosse 4 Rocket 1.2 22:59:12 61° SW 22:59:53 84° WNW 23:03:59 10° NNE
ISS -1.9 23:06:41 10° W 23:09:46 38° NNW 23:12:52 10° NE
BREEZE-M DEB (TANK) 4.3 23:07:58 10° WNW 23:09:51 21° NNW 23:09:51 21° NNW
Cosmos 1954 Rocket 3.9 23:09:47 54° S 23:10:55 73° ESE 23:16:14 10° NNE
Cosmos 1758 Rocket 4.3 23:10:06 34° SW 23:11:34 48° WNW 23:15:49 10° N
USA 238 DEB 3.9 23:10:59 42° SSE 23:12:38 50° ESE 23:19:24 10° NE
USA 238 3.9 23:11:09 42° SSE 23:12:45 49° ESE 23:19:30 10° NE
Cosmos 1943 4.0 23:07:44 10° SW 23:13:13 49° WNW 23:18:44 10° NNE
Cosmos 1842 3.2 23:13:33 78° W 23:13:33 78° W 23:17:29 10° N
Meteor 1-21 4.4 23:11:19 33° SSW 23:13:58 70° W 23:19:48 10° N
CARTOSAT-1 3.8 23:14:29 52° SW 23:15:02 57° W 23:19:19 10° NNW
CZ-4B R/B 4.3 23:17:06 11° ENE 23:17:06 11° ENE 23:17:46 10° NE
Cosmos 1758 3.3 23:15:04 10° N 23:19:02 76° NE 23:19:02 76° NE
Cosmos 1943 Rocket 2.1 23:16:51 10° NNW 23:22:26 77° ENE 23:23:31 58° SE
Spot 4 3.9 23:22:16 58° SSW 23:22:57 67° WSW 23:27:43 10° NNW
ALOS 2 4.5 23:25:26 19° ENE 23:25:45 19° ENE 23:28:49 10° NNE
Cosmos 1741 Rocket 4.3 23:27:52 49° E 23:27:52 49° E 23:32:53 10° NNE
Meteor 2-5 Rocket 4.4 23:28:42 39° ESE 23:29:07 39° E 23:34:29 10° NNE
H-2A R/B 2.6 23:28:49 39° SW 23:29:51 44° W 23:34:40 10° NNW
Cosmos 1092 Rocket 4.0 23:33:02 53° SE 23:34:19 65° E 23:40:33 10° NNE
Cosmos 1656 Rocket 4.1 23:34:02 10° NNW 23:39:37 52° ENE 23:40:41 46° E
Terra 2.8 23:39:33 34° WSW 23:40:15 35° W 23:44:38 10° NNW
Cosmos 1842 Rocket 3.6 23:37:26 10° N 23:41:34 79° N 23:41:34 79° N
Cosmos 1570 Rocket 3.9 23:37:39 10° NNW 23:43:03 82° ENE 23:43:34 72° SE
Cosmos 1850 Rocket 3.8 23:46:11 75° SE 23:46:20 76° ESE 23:51:34 10° NNE
Nadezhda 4 Rocket 4.0 23:45:01 49° SSW 23:46:51 76° W 23:53:13 10° N
CZ-4C R/B 3.5 23:54:53 25° E 23:54:53 25° E 23:58:16 10° NE
